Location: Camerons Lookout
(40.9833°S, 175.9333°E)
Time: 01:38:24
(UTC+00:00)

Cosmos 2173 Rocket - Pass Details

Date: 14 January 2026
Orbit: 944 x 999 km, 82.9° (Epoch: 6 February)

Event Time Altitude Azimuth Distance (km) Brightness Sun altitude
Exits shadow 09:50:46 22° 2° (N) 2,009 5.2 -18.2°
Maximum altitude 09:55:02 78° 85° (E) 1,004 3.9 -18.6°
Drops below altitude 10° 10:01:17 10° 170° (S) 2,727 6.9 -19.3°
Sets 10:03:47 0° 171° (S) 3,673 7.7 -19.6°
